Budapest Ferihegy, Hungary

2:09 AM CET on March 24, 2017 (GMT +0100)
Ferihegy

Weather History for LHBP - January, 2014

Change the Weather History Date:

Monday, January 27, 2014

  Actual Average Record
Temperature  
Mean Temperature 17 °F -  
Max Temperature 26 °F 40 °F 51 °F (2001)
Min Temperature 8 °F 24 °F 1 °F (2006)
Degree Days  
Heating Degree Days 48    
Moisture  
Dew Point 17 °F    
Average Humidity 92    
Maximum Humidity 100    
Minimum Humidity 80    
Precipitation  
Precipitation 0.00 in - - ()
Sea Level Pressure  
Sea Level Pressure 29.76 in    
Wind  
Wind Speed 2 mph ()    
Max Wind Speed 6 mph    
Max Gust Speed 43 mph    
Visibility 1.8 miles    
Events      
Averages and records for this station are not official NWS values.
T = Trace of Precipitation, MM = Missing Value Source: Averaged Metar Reports

Daily Weather History Graph

Daily Weather History Graph

Search for Another Location

Airport or City:

Trip Planner

Search our weather history database for the weather conditions in past years. The results will help you decide how hot, cold, wet, or windy it might be!

Date:

Astronomy

Jan. 27, 2014 Rise Set
Actual Time 7:15 AM CET 4:36 PM CET
Civil Twilight 6:41 AM CET 5:09 PM CET
Nautical Twilight 6:04 AM CET 5:47 PM CET
Astronomical Twilight 5:28 AM CET 6:23 PM CET
Moon 3:40 AM CET (1/27) 1:01 PM CET (1/27)
Length of Visible Light 10h 28m
Length of Day
9h 21m
Waning Crescent, 17% of the Moon is Illuminated
Jan 27
Waning Crescent
Jan 30
New
Feb 6
First Quarter
Feb 15
Full
Feb 22
Last Quarter

Hourly Weather History & Observations

Time (CET) Temp. Windchill Dew Point Humidity Pressure Visibility Wind Dir Wind Speed Gust Speed Precip Events Conditions
12:00 AM 14.0 °F 8.2 °F 12.2 °F 93% 29.89 in 0.9 mi Variable 3.5 mph - N/A   Scattered Clouds
12:30 AM 12.2 °F - 12.2 °F 100% 29.86 in 0.9 mi Variable 2.3 mph - N/A   Scattered Clouds
1:00 AM 12.2 °F - 12.2 °F 100% 29.86 in 0.9 mi Variable 1.2 mph - N/A   Scattered Clouds
1:30 AM 12.2 °F - 12.2 °F 100% 29.86 in 0.9 mi Calm Calm - N/A   Mostly Cloudy
2:00 AM 12.2 °F - 10.4 °F 92% 29.86 in 0.9 mi Calm Calm - N/A   Scattered Clouds
2:30 AM 12.2 °F - 12.2 °F 100% 29.83 in 0.9 mi Variable 1.2 mph - N/A   Partly Cloudy
3:00 AM 10.4 °F - 8.6 °F 92% 29.83 in 0.9 mi Calm Calm - N/A   Partly Cloudy
3:30 AM 10.4 °F - 10.4 °F 100% 29.80 in 0.9 mi Variable 2.3 mph - N/A   Mist
4:00 AM 10.4 °F - 8.6 °F 92% 29.80 in 0.9 mi Variable 1.2 mph - N/A   Scattered Clouds
4:30 AM 10.4 °F - 8.6 °F 92% 29.80 in 0.9 mi Variable 2.3 mph - N/A   Partly Cloudy
5:00 AM 8.6 °F - 8.6 °F 100% 29.80 in 0.7 mi Calm Calm - N/A   Partly Cloudy
5:30 AM 10.4 °F 4.0 °F 8.6 °F 92% 29.77 in 0.9 mi Variable 3.5 mph - N/A   Partly Cloudy
6:00 AM 12.2 °F 4.3 °F 8.6 °F 85% 29.80 in 0.6 mi ESE 4.6 mph - N/A   Scattered Clouds
6:30 AM 12.2 °F 4.3 °F 8.6 °F 85% 29.80 in 0.6 mi ESE 4.6 mph - N/A   Scattered Clouds
7:00 AM 12.2 °F - 8.6 °F 85% 29.80 in 0.6 mi Variable 1.2 mph - N/A   Scattered Clouds
7:30 AM 12.2 °F - 8.6 °F 85% 29.77 in 0.6 mi Calm Calm - N/A   Scattered Clouds
8:00 AM 14.0 °F 8.2 °F 10.4 °F 86% 29.80 in 0.6 mi Variable 3.5 mph - N/A   Mostly Cloudy
8:30 AM 14.0 °F - 14.0 °F 100% 29.80 in 0.8 mi Variable 2.3 mph - N/A   Scattered Clouds
9:00 AM 15.8 °F - 15.8 °F 100% 29.77 in 0.9 mi Variable 2.3 mph - N/A   Scattered Clouds
9:30 AM 17.6 °F - 17.6 °F 100% 29.77 in 1.2 mi Variable 2.3 mph - N/A   Scattered Clouds
10:00 AM 19.4 °F 14.3 °F 19.4 °F 100% 29.77 in 1.7 mi Variable 3.5 mph - N/A   Scattered Clouds
10:30 AM 21.2 °F - 21.2 °F 100% 29.77 in - Variable 2.3 mph - N/A   Scattered Clouds
11:00 AM 23.0 °F - 23.0 °F 100% 29.77 in 2.2 mi Variable 1.2 mph - N/A   Scattered Clouds
11:30 AM 23.0 °F 18.4 °F 21.2 °F 93% 29.74 in 2.5 mi Variable 3.5 mph - N/A   Mostly Cloudy
12:00 PM 24.8 °F - 21.2 °F 86% 29.74 in 2.5 mi Variable 1.2 mph - N/A   Mostly Cloudy
12:30 PM 26.6 °F - 23.0 °F 86% 29.74 in 2.5 mi Variable 2.3 mph 42.6 mph N/A   Mostly Cloudy
1:00 PM 24.8 °F - 21.2 °F 86% 29.74 in - Variable 2.3 mph - N/A   Mostly Cloudy
1:30 PM 26.6 °F - 21.2 °F 80% 29.74 in - Variable 1.2 mph - N/A   Scattered Clouds
2:00 PM 26.6 °F 21.2 °F 23.0 °F 86% 29.71 in 2.8 mi East 4.6 mph - N/A   Partly Cloudy
2:30 PM 26.6 °F - 21.2 °F 80% 29.71 in 3.1 mi Variable 2.3 mph - N/A   Mostly Cloudy
3:00 PM 26.6 °F - 21.2 °F 80% 29.71 in 3.1 mi Variable 1.2 mph - N/A   Mostly Cloudy
3:30 PM 26.6 °F - 21.2 °F 80% 29.71 in 3.1 mi Variable 2.3 mph - N/A   Mostly Cloudy
4:00 PM 26.6 °F 22.6 °F 21.2 °F 80% 29.71 in 3.1 mi Variable 3.5 mph - N/A   Mostly Cloudy
4:30 PM 24.8 °F 19.1 °F 21.2 °F 86% 29.71 in 3.1 mi ESE 4.6 mph - N/A   Mist
5:00 PM 24.8 °F 20.5 °F 21.2 °F 86% 29.71 in 2.8 mi Variable 3.5 mph - N/A   Mostly Cloudy
5:30 PM 24.8 °F - 23.0 °F 93% 29.71 in 2.8 mi Variable 2.3 mph - N/A   Mostly Cloudy
6:00 PM 24.8 °F 20.5 °F 23.0 °F 93% 29.71 in 2.8 mi Variable 3.5 mph - N/A   Mist
6:30 PM 24.8 °F 20.5 °F 23.0 °F 93% 29.71 in 2.8 mi Variable 3.5 mph - N/A   Mostly Cloudy
7:00 PM 24.8 °F 17.9 °F 23.0 °F 93% 29.71 in 2.8 mi ESE 5.8 mph - N/A   Mostly Cloudy
7:30 PM 24.8 °F 20.5 °F 23.0 °F 93% 29.71 in 2.2 mi Variable 3.5 mph - N/A   Mostly Cloudy
8:00 PM 24.8 °F - 23.0 °F 93% 29.71 in 2.2 mi Variable 1.2 mph - N/A   Overcast
8:30 PM 24.8 °F - 23.0 °F 93% 29.71 in 2.2 mi Variable 2.3 mph - N/A   Mist
9:00 PM 24.8 °F 20.5 °F 23.0 °F 93% 29.71 in 2.2 mi Variable 3.5 mph - N/A   Overcast
9:30 PM 24.8 °F 20.5 °F 23.0 °F 93% 29.71 in 2.2 mi Variable 3.5 mph - N/A   Overcast
10:00 PM 24.8 °F 19.1 °F 23.0 °F 93% 29.71 in 1.9 mi WSW 4.6 mph - N/A   Scattered Clouds
10:30 PM 24.8 °F - 23.0 °F 93% 29.68 in 1.9 mi Variable 2.3 mph - N/A   Scattered Clouds
11:00 PM 23.0 °F 15.8 °F 21.2 °F 93% 29.68 in 1.9 mi West 5.8 mph - N/A   Scattered Clouds
11:30 PM 24.8 °F - 23.0 °F 93% 29.68 in 1.9 mi Variable 2.3 mph - N/A   Mostly Cloudy